Risoul, France 16 day weather forecast

Slopes altitude range 1660 m - 2750m

Number of lifts: 52 Pistes: 185km

In some cases the lift and piste totals shown are for the ski domain (e.g. Three Valleys) rather than individual resort (e.g. Courchevel)

Overview

The 16 day weather forecast is fully updated 4 times every day.

    • Sun 16 JUN 2019
    • Sun 16
    • 9C 19C
    • Mon 17 JUN 2019
    • Mon 17
    • 13C 18C
    • Tue 18 JUN 2019
    • Tue 18
    • 13C 19C
    • Wed 19 JUN 2019
    • Wed 19
    • 14C 20C
    • Thu 20 JUN 2019
    • Thu 20
    • 14C 19C
    • Fri 21 JUN 2019
    • Fri 21
    • 13C 18C
    • Sat 22 JUN 2019
    • Sat 22
    • 12C 18C
    • Sun 23 JUN 2019
    • Sun 23
    • 12C 18C
    • Mon 24 JUN 2019
    • Mon 24
    • 13C 21C
    • Tue 25 JUN 2019
    • Tue 25
    • 15C 24C
    • Wed 26 JUN 2019
    • Wed 26
    • 8C 13C
    • Thu 27 JUN 2019
    • Thu 27
    • 10C 14C
    • Fri 28 JUN 2019
    • Fri 28
    • 13C 19C
    • Sat 29 JUN 2019
    • Sat 29
    • 12C 18C
    • Sun 30 JUN 2019
    • Sun 30
    • 14C 19C
    • Mon 01 JUL 2019
    • Mon 01
    • 13C 16C

Date:

Time Type 0°C level Temp Chill Snow Cloud Speed Gust Dir Press
12:00 3806m 19°C 19_6 0cm 0% 6mph 4mph 1016mB
15:00 3830m 19°C 19_7 0cm 1% 7mph 6mph 1015mB
18:00 3803m 19°C 19_5 0cm 12% 5mph 7mph 1016mB
21:00 4081m 10°C 10_2 0cm 23% 2mph 3mph 1017mB
0:00 3807m 10°C 10_5 0cm 12% 5mph 6mph 1017mB
3:00 3695m 9°C 9_6 0cm 0% 6mph 7mph 1016mB
6:00 3611m 9°C 9_4 0cm 0% 4mph 6mph 1017mB
9:00 3528m 13°C 13_3 0cm 40% 3mph 3mph 1017mB
12:00 3695m 18°C 18_6 0cm 56% 6mph 6mph 1017mB
15:00 3704m 17°C 17_4 0cm 100% 4mph 5mph 1015mB
18:00 3748m 17°C 17_2 0cm 92% 2mph 3mph 1015mB
21:00 3808m 11°C 11_3 0cm 54% 3mph 4mph 1016mB
0:00 3752m 10°C 10_3 0cm 49% 3mph 4mph 1017mB
3:00 3709m 9°C 9_4 0cm 0% 4mph 5mph 1016mB
6:00 3740m 9°C 9_3 0cm 17% 3mph 4mph 1016mB
9:00 3696m 13°C 13_5 0cm 63% 5mph 5mph 1016mB
12:00 3593m 19°C 19_8 0cm 64% 8mph 8mph 1015mB
15:00 3585m 19°C 19_7 0cm 3% 7mph 7mph 1014mB
18:00 3766m 19°C 19_4 0cm 1% 4mph 5mph 1014mB
21:00 3863m 11°C 11_2 0cm 0% 2mph 3mph 1015mB
0:00 3813m 10°C 10_4 0cm 0% 4mph 4mph 1015mB
3:00 3731m 9°C 9_4 0cm 54% 4mph 5mph 1014mB
6:00 3677m 9°C 9_3 0cm 38% 3mph 3mph 1014mB
9:00 3689m 14°C 14_6 0cm 10% 6mph 8mph 1014mB
12:00 3654m 20°C 20_8 0cm 5% 8mph 10mph 1013mB
15:00 3637m 20°C 20_8 0cm 2% 8mph 12mph 1012mB
18:00 3643m 20°C 20_4 0cm 31% 4mph 5mph 1012mB
21:00 3705m 11°C 11_3 0cm 87% 3mph 4mph 1014mB
0:00 3807m 10°C 10_4 0cm 89% 4mph 5mph 1014mB
3:00 3634m 10°C 10_4 0cm 67% 4mph 5mph 1013mB
6:00 3501m 9°C 9_4 0cm 37% 4mph 4mph 1013mB
9:00 3448m 14°C 14_6 0cm 6% 6mph 9mph 1013mB
12:00 3490m 19°C 19_8 0cm 38% 8mph 10mph 1013mB
15:00 3510m 19°C 19_11 0cm 64% 11mph 15mph 1012mB
18:00 3606m 19°C 19_5 0cm 74% 5mph 6mph 1013mB
21:00 3571m 11°C 11_2 0cm 4% 2mph 2mph 1014mB
0:00 3540m 10°C 10_4 0cm 2% 4mph 5mph 1014mB
3:00 3528m 9°C 9_4 0cm 0% 4mph 5mph 1014mB
6:00 3498m 9°C 9_2 0cm 3% 2mph 3mph 1014mB
9:00 3591m 13°C 13_4 0cm 63% 4mph 4mph 1015mB
12:00 3603m 18°C 18_6 0cm 81% 6mph 6mph 1014mB
15:00 3669m 17°C 17_6 0cm 97% 6mph 7mph 1014mB
18:00 3631m 17°C 17_5 0cm 83% 5mph 6mph 1014mB
21:00 3618m 10°C 10_1 0cm 26% 1mph 2mph 1015mB
0:00 3598m 9°C 9_3 0cm 44% 3mph 4mph 1015mB
3:00 3508m 8°C 8_3 0cm 0% 3mph 3mph 1015mB
6:00 3451m 8°C 8_2 0cm 0% 2mph 3mph 1015mB
9:00 3452m 12°C 12_5 0cm 0% 5mph 5mph 1015mB
12:00 3441m 18°C 18_8 0cm 0% 8mph 9mph 1014mB
15:00 3424m 18°C 18_7 0cm 0% 7mph 9mph 1013mB
18:00 3406m 18°C 18_4 0cm 11% 4mph 6mph 1013mB
21:00 3471m 10°C 10_2 0cm 99% 2mph 2mph 1015mB
0:00 3455m 10°C 10_1 0cm 100% 1mph 1mph 1015mB
3:00 3486m 8°C 8_1 0cm 76% 1mph 2mph 1015mB
6:00 3576m 8°C 8_0 0cm 69% 0mph 2mph 1016mB
9:00 3648m 12°C 12_5 0cm 38% 5mph 6mph 1016mB
12:00 3831m 18°C 18_7 0cm 60% 7mph 7mph 1015mB
15:00 3832m 19°C 19_7 0cm 60% 7mph 8mph 1014mB
18:00 3960m 19°C 19_3 0cm 46% 3mph 5mph 1015mB
21:00 4077m 9°C 9_7 0cm 57% 7mph 7mph 1017mB
0:00 4370m 8°C 8_7 0cm 78% 7mph 7mph 1018mB
3:00 4388m 8°C 8_6 0cm 78% 6mph 6mph 1017mB
6:00 4424m 7°C 7_4 0cm 65% 4mph 5mph 1018mB
9:00 4741m 13°C 13_3 0cm 91% 3mph 3mph 1018mB
12:00 4751m 21°C 21_5 0cm 95% 5mph 5mph 1017mB
15:00 4855m 21°C 21_5 0cm 6% 5mph 5mph 1016mB
18:00 4850m 21°C 21_3 0cm 3% 3mph 4mph 1017mB
21:00 4779m 11°C 11_4 0cm 0% 4mph 5mph 1019mB
0:00 4646m 11°C 11_5 0cm 0% 5mph 6mph 1019mB
3:00 4658m 10°C 10_5 0cm 0% 5mph 6mph 1018mB
6:00 4696m 10°C 10_3 0cm 0% 3mph 5mph 1018mB
9:00 4704m 15°C 15_3 0cm 0% 3mph 5mph 1017mB
12:00 4336m 24°C 24_4 0cm 0% 4mph 9mph 1016mB
15:00 4373m 24°C 24_4 0cm 0% 4mph 11mph 1015mB
18:00 4434m 24°C 24_3 0cm 0% 3mph 4mph 1015mB
21:00 4496m 13°C 13_4 0cm 48% 4mph 5mph 1017mB
0:00 4357m 11°C 11_6 0cm 68% 6mph 7mph 1016mB
3:00 4155m 10°C 10_6 0cm 33% 6mph 6mph 1015mB
6:00 4065m 9°C 9_6 0cm 42% 6mph 7mph 1015mB
Afternoon 0.0208333mm 0.125 3249m 13°C 13_8 0cm 17% 8mph 11mph 1014mB
Morning 0mm 0 3273m 2°C 2_11 0cm 8% 11mph 13mph 1014mB
Afternoon 0.0208333mm 0 3251m 14°C 14_7 0cm 0% 7mph 8mph 1014mB
Morning 0mm 0 3700m 1°C 1_6 0cm 0% 6mph 8mph 1018mB
Afternoon 0mm 0 3990m 19°C 19_2 0cm 0% 2mph 3mph 1016mB
Morning 0mm 0 4024m 5°C 5_3 0cm 0% 3mph 4mph 1016mB
Afternoon 0mm 0 4012m 18°C 18_4 0cm 8% 4mph 4mph 1012mB
Morning 0mm 0 4215m 6°C 6_4 0cm 45% 4mph 5mph 1011mB
Afternoon 0.0208333mm 0.0625 4254m 19°C 19_4 0cm 37% 4mph 4mph 1008mB
Morning 0.0208333mm 0.0625 4018m 6°C 6_2 0cm 0% 2mph 3mph 1009mB
Afternoon 0.104167mm 0.3125 3756m 16°C 16_2 0cm 61% 2mph 4mph 1009mB
Morning 0mm 0 3854m 6°C 6_5 0cm 75% 5mph 7mph 1011mB

16 day outlook at a glance

Forecast issued: 6/16/2019 3:20:06 PM

Chat

Your comments and questions. In a resort? Let us know what it's like!


Characters left 250

For terms and conditions see Readers Comments on the Cookie and privacy policy page.